Weather History for Clinton-Sherman, OK

Change the Weather History Date:

Wednesday, October 27, 2010

  Actual Average Record
Temperature  
Mean Temperature 60 °F -  
Max Temperature 69 °F 65 °F 82 °F (2014)
Min Temperature 50 °F 45 °F 21 °F (1997)
Degree Days  
Heating Degree Days 6    
Growing Degree Days 10 (Base 50)    
Moisture  
Dew Point 27 °F    
Average Humidity 35    
Maximum Humidity 59    
Minimum Humidity 15    
Precipitation  
Precipitation 0.00 in - - ()
Sea Level Pressure  
Sea Level Pressure 30.02 in    
Wind  
Wind Speed 10 mph (NNW)    
Max Wind Speed 17 mph    
Max Gust Speed 23 mph    
Visibility 10 miles    
Events      
Averages and records for this station are not official NWS values.
T = Trace of Precipitation, MM = Missing Value Source: NWS Daily Summary

Daily Weather History Graph

Daily Weather History Graph

Search for Another Location

Airport:

Trip Planner

Search our weather history database for the weather conditions in past years. The results will help you decide how hot, cold, wet, or windy it might be!

Date:

Astronomy

Oct. 27, 2010 Rise Set
Actual Time 7:53 AM CDT 6:47 PM CDT
Civil Twilight 7:27 AM CDT 7:13 PM CDT
Nautical Twilight 6:57 AM CDT 7:43 PM CDT
Astronomical Twilight 6:28 AM CDT 8:12 PM CDT
Moon 10:19 PM CDT (10/27) 12:20 PM CDT (10/27)
Length of Visible Light 11h 45m
Length of Day
10h 53m
Waning Gibbous, 79% of the Moon is Illuminated
Oct 27
Waning Gibbous
Oct 30
Last Quarter
Nov 5
New
Nov 13
First Quarter
Nov 21
Full

Hourly Weather History & Observations

Time (CDT) Temp. Dew Point Humidity Pressure Visibility Wind Dir Wind Speed Gust Speed Precip Events Conditions
12:53 AM 53.1 °F 34.0 °F 48% 29.73 in 10.0 mi NW 9.2 mph - N/A   Clear
1:53 AM 50.0 °F 36.0 °F 59% 29.76 in 10.0 mi West 8.1 mph - N/A   Scattered Clouds
2:53 AM 53.1 °F 32.0 °F 45% 29.78 in 10.0 mi WNW 8.1 mph - N/A   Scattered Clouds
3:53 AM 52.0 °F 28.9 °F 41% 29.79 in 10.0 mi NW 11.5 mph - N/A   Clear
4:53 AM 52.0 °F 28.0 °F 40% 29.82 in 10.0 mi NNW 11.5 mph - N/A   Overcast
5:53 AM 51.1 °F 30.0 °F 44% 29.85 in 10.0 mi NNW 9.2 mph - N/A   Overcast
6:53 AM 51.1 °F 30.0 °F 44% 29.89 in 10.0 mi NNW 9.2 mph - N/A   Mostly Cloudy
7:53 AM 50.0 °F 30.0 °F 46% 29.93 in 10.0 mi NNW 10.4 mph - N/A   Mostly Cloudy
8:53 AM 52.0 °F 30.0 °F 43% 29.96 in 10.0 mi NNW 10.4 mph - N/A   Mostly Cloudy
9:53 AM 53.1 °F 30.0 °F 41% 30.01 in 10.0 mi NNW 12.7 mph - N/A   Partly Cloudy
10:53 AM 59.0 °F 28.9 °F 32% 30.03 in 10.0 mi NNW 11.5 mph - N/A   Scattered Clouds
11:53 AM 64.0 °F 26.1 °F 24% 30.04 in 10.0 mi North 12.7 mph - N/A   Clear
12:53 PM 64.9 °F 26.1 °F 23% 30.04 in 10.0 mi NNW 9.2 mph - N/A   Clear
1:53 PM 66.9 °F 21.0 °F 17% 30.04 in 10.0 mi NNW 13.8 mph 18.4 mph N/A   Clear
2:53 PM 68.0 °F 21.0 °F 17% 30.04 in 10.0 mi NNW 15.0 mph - N/A   Clear
3:53 PM 69.1 °F 21.9 °F 17% 30.06 in 10.0 mi NW 17.3 mph - N/A   Clear
4:53 PM 68.0 °F 18.0 °F 15% 30.09 in 10.0 mi NW 12.7 mph 23.0 mph N/A   Clear
5:53 PM 66.9 °F 19.0 °F 16% 30.12 in 10.0 mi NNW 15.0 mph - N/A   Clear
6:53 PM 60.1 °F 30.0 °F 32% 30.15 in 10.0 mi North 5.8 mph - N/A   Clear
7:53 PM 57.0 °F 28.0 °F 33% 30.20 in 10.0 mi Calm Calm - N/A   Clear
8:53 PM 53.1 °F 30.9 °F 43% 30.25 in 10.0 mi NW 5.8 mph - N/A   Clear
9:53 PM 54.0 °F 26.1 °F 34% 30.27 in 10.0 mi North 6.9 mph - N/A   Clear
10:53 PM 50.0 °F 28.0 °F 43% 30.31 in 10.0 mi NNW 8.1 mph - N/A   Clear
11:53 PM 50.0 °F 25.0 °F 38% 30.35 in 10.0 mi North 15.0 mph - N/A   Clear